Meteo orario Abdrezyakovo

Oggi, 4 Marzo, Giovedi

Tempo Temperatura Precipitazioni Vento Pressione Umidità
00:00 -9°C° 0.1 mm 2 m/s 714 mm Hg 95%
01:00 -9°C° 0.1 mm 3 m/s 714 mm Hg 94%
02:00 -10°C° 0 mm 3 m/s 714 mm Hg 94%
03:00 -10°C° 0 mm 3 m/s 714 mm Hg 94%
04:00 -12°C° 0 mm 3 m/s 714 mm Hg 94%
05:00 -12°C° 0.1 mm 3 m/s 714 mm Hg 94%
06:00 -11°C° 0.1 mm 4 m/s 714 mm Hg 94%
07:00 -12°C° 0.1 mm 5 m/s 714 mm Hg 94%
08:00 -12°C° 0.2 mm 5 m/s 715 mm Hg 93%
09:00 -12°C° 0.2 mm 5 m/s 715 mm Hg 91%
10:00 -11°C° 0 mm 5 m/s 715 mm Hg 90%
11:00 -11°C° 0.1 mm 5 m/s 715 mm Hg 88%
12:00 -11°C° 0.1 mm 6 m/s 715 mm Hg 87%
13:00 -10°C° 0.1 mm 6 m/s 715 mm Hg 85%
14:00 -10°C° 0 mm 6 m/s 715 mm Hg 86%
15:00 -10°C° 0 mm 5 m/s 715 mm Hg 86%
16:00 -10°C° 0 mm 5 m/s 715 mm Hg 86%
17:00 -11°C° 0 mm 5 m/s 715 mm Hg 87%
18:00 -11°C° 0 mm 4 m/s 715 mm Hg 88%
19:00 -12°C° 0 mm 3 m/s 715 mm Hg 89%
20:00 -11°C° 0 mm 4 m/s 714 mm Hg 88%
21:00 -11°C° 0 mm 4 m/s 714 mm Hg 87%
22:00 -11°C° 0 mm 4 m/s 713 mm Hg 86%
23:00 -11°C° 0 mm 5 m/s 713 mm Hg 87%

Domani, 5 Marzo, Venerdi

Tempo Temperatura Precipitazioni Vento Pressione Umidità
00:00 -11°C° 0 mm 5 m/s 712 mm Hg 88%
01:00 -10°C° 0 mm 6 m/s 711 mm Hg 88%
02:00 -9°C° 0.4 mm 6 m/s 711 mm Hg 84%
03:00 -9°C° 0.4 mm 7 m/s 711 mm Hg 80%
04:00 -8°C° 0.4 mm 7 m/s 712 mm Hg 76%
05:00 -9°C° 0 mm 7 m/s 712 mm Hg 78%
06:00 -9°C° 0 mm 7 m/s 712 mm Hg 80%
07:00 -11°C° 0 mm 7 m/s 713 mm Hg 81%
08:00 -11°C° 0 mm 7 m/s 714 mm Hg 81%
09:00 -9°C° 0 mm 7 m/s 714 mm Hg 80%
10:00 -9°C° 0 mm 7 m/s 715 mm Hg 79%
11:00 -8°C° 0 mm 6 m/s 715 mm Hg 81%
12:00 -8°C° 0 mm 6 m/s 715 mm Hg 82%
13:00 -7°C° 0 mm 5 m/s 715 mm Hg 83%
14:00 -7°C° 0.1 mm 5 m/s 716 mm Hg 85%
15:00 -7°C° 0.1 mm 4 m/s 716 mm Hg 87%
16:00 -8°C° 0.1 mm 4 m/s 716 mm Hg 89%
17:00 -7°C° 0.1 mm 3 m/s 716 mm Hg 90%
18:00 -8°C° 0.1 mm 3 m/s 717 mm Hg 92%
19:00 -9°C° 0.1 mm 3 m/s 717 mm Hg 93%
20:00 -10°C° 0 mm 3 m/s 718 mm Hg 94%
21:00 -13°C° 0 mm 3 m/s 718 mm Hg 94%
22:00 -14°C° 0 mm 3 m/s 719 mm Hg 95%
23:00 -16°C° 0 mm 3 m/s 719 mm Hg 96%

Dopodomani, 6 Marzo, Sabato

Tempo Temperatura Precipitazioni Vento Pressione Umidità
00:00 -17°C° 0 mm 2 m/s 720 mm Hg 97%
01:00 -18°C° 0 mm 2 m/s 720 mm Hg 98%
02:00 -19°C° 0 mm 2 m/s 721 mm Hg 97%
03:00 -19°C° 0 mm 2 m/s 721 mm Hg 97%
04:00 -19°C° 0 mm 2 m/s 722 mm Hg 97%
05:00 -19°C° 0 mm 2 m/s 722 mm Hg 97%
06:00 -19°C° 0 mm 2 m/s 722 mm Hg 96%
07:00 -20°C° 0 mm 2 m/s 722 mm Hg 96%
08:00 -18°C° 0 mm 3 m/s 722 mm Hg 93%
09:00 -17°C° 0 mm 4 m/s 723 mm Hg 90%
10:00 -15°C° 0 mm 4 m/s 723 mm Hg 86%
11:00 -14°C° 0 mm 5 m/s 723 mm Hg 86%
12:00 -13°C° 0 mm 5 m/s 723 mm Hg 85%
13:00 -12°C° 0 mm 5 m/s 723 mm Hg 84%
14:00 -12°C° 0 mm 5 m/s 723 mm Hg 85%
15:00 -12°C° 0 mm 5 m/s 723 mm Hg 85%
16:00 -12°C° 0 mm 5 m/s 723 mm Hg 86%
17:00 -12°C° 0 mm 4 m/s 723 mm Hg 89%
18:00 -13°C° 0 mm 3 m/s 723 mm Hg 91%
19:00 -13°C° 0 mm 2 m/s 723 mm Hg 94%
20:00 -13°C° 0 mm 2 m/s 723 mm Hg 94%
21:00 -14°C° 0 mm 2 m/s 723 mm Hg 95%
22:00 -13°C° 0 mm 1 m/s 723 mm Hg 96%
23:00 -13°C° 0.1 mm 1 m/s 723 mm Hg 96%

7 Marzo, Domenica

Tempo Temperatura Precipitazioni Vento Pressione Umidità
00:00 -13°C° 0.1 mm 1 m/s 722 mm Hg 96%
01:00 -13°C° 0.1 mm 1 m/s 722 mm Hg 96%
02:00 -14°C° 0 mm 1 m/s 722 mm Hg 96%
03:00 -14°C° 0 mm 0 m/s 722 mm Hg 96%
04:00 -14°C° 0 mm 0 m/s 722 mm Hg 96%
05:00 -14°C° 0 mm 0 m/s 721 mm Hg 96%
06:00 -15°C° 0 mm 0 m/s 721 mm Hg 97%
07:00 -15°C° 0 mm 0 m/s 721 mm Hg 97%
08:00 -14°C° 0 mm 0 m/s 721 mm Hg 94%
09:00 -12°C° 0 mm 0 m/s 721 mm Hg 92%
10:00 -11°C° 0 mm 1 m/s 721 mm Hg 89%
11:00 -10°C° 0 mm 1 m/s 721 mm Hg 88%
12:00 -12°C° 0 mm 2 m/s 721 mm Hg 87%
13:00 -13°C° 0 mm 3 m/s 721 mm Hg 86%
14:00 -12°C° 0 mm 2 m/s 721 mm Hg 86%
15:00 -12°C° 0 mm 2 m/s 721 mm Hg 86%
16:00 -13°C° 0 mm 2 m/s 721 mm Hg 86%
17:00 -15°C° 0 mm 2 m/s 721 mm Hg 90%
18:00 -16°C° 0 mm 2 m/s 721 mm Hg 93%
19:00 -16°C° 0 mm 1 m/s 722 mm Hg 97%
20:00 -17°C° 0 mm 1 m/s 722 mm Hg 97%
21:00 -18°C° 0 mm 1 m/s 722 mm Hg 98%
22:00 -20°C° 0 mm 2 m/s 723 mm Hg 98%
23:00 -19°C° 0 mm 1 m/s 723 mm Hg 98%

8 Marzo, Lunedi

Tempo Temperatura Precipitazioni Vento Pressione Umidità
00:00 -20°C° 0 mm 1 m/s 722 mm Hg 98%
01:00 -21°C° 0 mm 1 m/s 722 mm Hg 99%
02:00 -21°C° 0 mm 1 m/s 722 mm Hg 97%
03:00 -22°C° 0 mm 1 m/s 722 mm Hg 95%
04:00 -22°C° 0 mm 1 m/s 722 mm Hg 93%
05:00 -21°C° 0 mm 1 m/s 722 mm Hg 91%
06:00 -20°C° 0 mm 1 m/s 721 mm Hg 89%
07:00 -19°C° 0 mm 1 m/s 721 mm Hg 87%
08:00 -19°C° 0.1 mm 2 m/s 721 mm Hg 89%
09:00 -16°C° 0.1 mm 2 m/s 720 mm Hg 90%
10:00 -13°C° 0.1 mm 2 m/s 720 mm Hg 92%
11:00 -13°C° 0.1 mm 3 m/s 720 mm Hg 90%
12:00 -11°C° 0.1 mm 4 m/s 719 mm Hg 87%
13:00 -11°C° 0.1 mm 5 m/s 719 mm Hg 85%
14:00 -11°C° 0.1 mm 5 m/s 719 mm Hg 84%
15:00 -10°C° 0.1 mm 5 m/s 719 mm Hg 84%
16:00 -10°C° 0.1 mm 5 m/s 719 mm Hg 83%
17:00 -11°C° 0.1 mm 4 m/s 719 mm Hg 83%
18:00 -12°C° 0.1 mm 4 m/s 719 mm Hg 83%
19:00 -14°C° 0.1 mm 3 m/s 720 mm Hg 84%
20:00 -13°C° 0 mm 2 m/s 720 mm Hg 85%
21:00 -14°C° 0 mm 2 m/s 720 mm Hg 85%
22:00 -15°C° 0 mm 2 m/s 720 mm Hg 86%
23:00 -14°C° 0 mm 2 m/s 719 mm Hg 86%

9 Marzo, Martedi

Tempo Temperatura Precipitazioni Vento Pressione Umidità
00:00 -13°C° 0 mm 2 m/s 718 mm Hg 87%
01:00 -12°C° 0 mm 2 m/s 718 mm Hg 87%
02:00 -12°C° 0 mm 2 m/s 717 mm Hg 88%
03:00 -13°C° 0 mm 3 m/s 716 mm Hg 88%
04:00 -14°C° 0 mm 3 m/s 715 mm Hg 89%
05:00 -14°C° 0.2 mm 3 m/s 715 mm Hg 84%
06:00 -15°C° 0.2 mm 4 m/s 715 mm Hg 80%
07:00 -15°C° 0.2 mm 5 m/s 715 mm Hg 75%
08:00 -15°C° 0.1 mm 7 m/s 715 mm Hg 78%
09:00 -16°C° 0.1 mm 9 m/s 716 mm Hg 82%
10:00 -16°C° 0.1 mm 11 m/s 717 mm Hg 85%
11:00 -16°C° 0.3 mm 11 m/s 718 mm Hg 86%
12:00 -14°C° 0.3 mm 11 m/s 719 mm Hg 86%
13:00 -13°C° 0.3 mm 10 m/s 720 mm Hg 86%
14:00 -12°C° 0.1 mm 9 m/s 721 mm Hg 86%
15:00 -12°C° 0.1 mm 8 m/s 722 mm Hg 86%
16:00 -13°C° 0.1 mm 7 m/s 723 mm Hg 86%
17:00 -12°C° 0.1 mm 6 m/s 724 mm Hg 88%
18:00 -13°C° 0.1 mm 5 m/s 724 mm Hg 91%
19:00 -14°C° 0.1 mm 4 m/s 725 mm Hg 93%
20:00 -14°C° 0.1 mm 4 m/s 726 mm Hg 94%
21:00 -14°C° 0.1 mm 3 m/s 726 mm Hg 94%
22:00 -14°C° 0.1 mm 3 m/s 727 mm Hg 94%
23:00 -15°C° 0.1 mm 3 m/s 727 mm Hg 95%
Mostrare altro

Abbiamo bisogno del tuo consenso

Meteoprog e i nostri fornitori di servizi possono memorizzare e accedere a dati personali come cookie, identificatori di dispositivi o altre tecnologie simili sul tuo dispositivo e possono elaborare tali dati per personalizzare i contenuti e gli annunci, nonché fornire funzionalità dei social media e analizzarne il traffico.

  • Archiviare e/o accedere alle informazioni sul tuo dispositivo

    Cookie, identificatori di dispositivi o altre informazioni possono essere memorizzati o resi accessibili sul tuo dispositivo per le finalità sopra indicate.

  • Annunci e contenuti personalizzati, misurazione di annunci e contenuti, approfondimenti sul pubblico e sviluppo di prodotti

    Gli annunci e i contenuti possono essere personalizzati in base a un profilo. È possibile aggiungere più dati per personalizzare meglio annunci e contenuti. È possibile misurare il rendimento degli annunci e dei contenuti. È possibile ricavare informazioni sul pubblico che ha visto gli annunci e i contenuti. Tali dati possono essere utilizzati per sviluppare o migliorare l'esperienza, i sistemi e il software dell'utente.

Cliccando su “Accetto”, acconsenti all'uso di cookie, identificatori di dispositivo, web beacon o altre tecnologie simili. Puoi modificare le impostazioni nel browser del tuo dispositivo.

Per determinati scopi, è possibile fare affidamento su interessi legali, piuttosto che sul consenso. Puoi approfondire questo argomento consultando la nostra Informativa sulla privacy e sui cookie.